sat.trackr.live / text

‹ back to catalog

STARLINK-32898

NORAD 62998 · 2025-031T

PAYLOAD ACTIVE UNKNOWN

§ Identity

Operator
Country
US
Launch date
2025-02-11
Launch site
AFETR
Launch vehicle
Mass (kg)
RCS (m²)

Purposes: comms

External: N2YO · Heavens-Above · Gunter

§ Orbital elements

Epoch: 2026-05-25T04:46:35.501664Z

Period
94.27 min
Inclination
42.9981°
Eccentricity
0.0001163
Mean motion
15.27562300 rev/d
Perigee alt
482.3 km
Apogee alt
483.9 km
Semi-major
6,861.2 km
B*
7.2902e-4
RAAN
71.4824°
Arg perigee
209.6908°
Mean anomaly
150.3878°
Rev number
7,279

§ Raw data

STARLINK-328981 62998U 25031T   26145.19902201  .00019842  00000+0  72902-3 0  99932 62998  42.9981  71.4824 0001163 209.6908 150.3878 15.27562300 72798

JSON: /api/v1/satellites/62998 · /tle

For live sub-satellite position, see the globe view (requires WebGL).

§ Visibility from observer

Set your observer location to see the next 7 days of passes ≥ 10°. The values pass through the URL so the page stays shareable.

No JS? Fill the form by hand. The geolocation button needs JavaScript.